Location: Moscow
(55.7500°N, 37.5830°E)
Time: 23:15:26
(UTC+03:00)

COSMOS 2251 DEB - Pass Details

Date: 06 July 2022
Orbit: 738 x 847 km, 74.1° (Epoch: 17 August)

Event Time Altitude Azimuth Distance (km) Brightness Sun altitude
Rises 01:46:42 0° 330° (NNW) 3,261 ? -10.0°
Reaches altitude 10° 01:49:45 10° 347° (NNW) 2,311 ? -9.9°
Maximum altitude 01:53:33 20° 34° (NE) 1,705 ? -9.7°
Drops below altitude 10° 01:57:18 10° 81° (E) 2,268 ? -9.6°
Sets 02:00:15 0° 99° (E) 3,179 ? -9.4°
